Time,TemperatureF,DewpointF,PressureIn,WindDirection,WindDirectionDegrees,WindSpeedMPH,WindSpeedGustMPH,Humidity,HourlyPrecipIn,Conditions,Clouds,dailyrainin,SoftwareType,DateUTC
2013-04-26 00:03:00,32.0,-99.9,30.24,NNW,337,0.0,5.0,0,-99.99,,,0.00,,2013-04-26 04:03:00,
2013-04-26 01:42:00,29.0,-99.9,30.30,SW,225,5.0,5.0,0,-99.99,,,0.00,,2013-04-26 05:42:00,
2013-04-26 01:52:00,29.0,-99.9,30.30,SW,225,5.0,5.0,0,-99.99,,,0.00,,2013-04-26 05:52:00,
2013-04-26 02:02:00,29.0,-99.9,30.30,SW,225,5.0,5.0,0,-99.99,,,0.00,,2013-04-26 06:02:00,
2013-04-26 02:42:00,26.0,-99.9,30.31,WSW,247,0.0,6.0,0,-99.99,,,-99.99,,2013-04-26 06:42:00,
2013-04-26 02:52:00,26.0,-99.9,30.31,WSW,247,0.0,6.0,0,-99.99,,,-99.99,,2013-04-26 06:52:00,
2013-04-26 03:02:00,26.0,-99.9,30.31,WSW,247,0.0,6.0,0,-99.99,,,-99.99,,2013-04-26 07:02:00,
2013-04-26 03:42:00,25.0,-99.9,30.33,WSW,247,1.0,4.0,0,-99.99,,,0.00,,2013-04-26 07:42:00,
2013-04-26 03:52:00,25.0,-99.9,30.33,WSW,247,1.0,4.0,0,-99.99,,,0.00,,2013-04-26 07:52:00,
2013-04-26 04:03:00,25.0,-99.9,30.33,WSW,247,1.0,4.0,0,-99.99,,,0.00,,2013-04-26 08:03:00,
2013-04-26 04:42:00,26.0,-99.9,30.35,SSW,202,0.0,6.0,0,-99.99,,,0.00,,2013-04-26 08:42:00,
2013-04-26 04:52:00,26.0,-99.9,30.35,SSW,202,0.0,6.0,0,-99.99,,,0.00,,2013-04-26 08:52:00,
2013-04-26 05:02:00,26.0,-99.9,30.35,SSW,202,0.0,6.0,0,-99.99,,,0.00,,2013-04-26 09:02:00,
2013-04-26 05:43:00,24.0,-99.9,30.37,WSW,247,1.0,5.0,0,-99.99,,,0.00,,2013-04-26 09:43:00,
2013-04-26 05:53:00,24.0,-99.9,30.37,WSW,247,1.0,5.0,0,-99.99,,,0.00,,2013-04-26 09:53:00,
2013-04-26 06:03:00,24.0,-99.9,30.37,WSW,247,1.0,5.0,0,-99.99,,,0.00,,2013-04-26 10:03:00,
2013-04-26 06:42:00,23.0,-99.9,30.38,WSW,247,0.0,4.0,0,-99.99,,,0.00,,2013-04-26 10:42:00,
2013-04-26 06:52:00,23.0,-99.9,30.38,WSW,247,0.0,4.0,0,-99.99,,,0.00,,2013-04-26 10:52:00,
2013-04-26 07:02:00,23.0,-99.9,30.38,WSW,247,0.0,4.0,0,-99.99,,,0.00,,2013-04-26 11:02:00,
2013-04-26 07:42:00,26.0,-99.9,30.40,West,270,1.0,5.0,0,-99.99,,,0.00,,2013-04-26 11:42:00,
2013-04-26 07:52:00,26.0,-99.9,30.40,West,270,1.0,5.0,0,-99.99,,,0.00,,2013-04-26 11:52:00,
2013-04-26 08:02:00,26.0,-99.9,30.40,West,270,1.0,5.0,0,-99.99,,,0.00,,2013-04-26 12:02:00,
2013-04-26 08:42:00,33.0,-99.9,30.41,NNW,337,3.0,4.0,0,-99.99,,,-99.99,,2013-04-26 12:42:00,
2013-04-26 08:52:00,33.0,-99.9,30.41,NNW,337,3.0,4.0,0,-99.99,,,-99.99,,2013-04-26 12:52:00,
2013-04-26 09:01:00,33.0,-99.9,30.41,NNW,337,3.0,4.0,0,-99.99,,,-99.99,,2013-04-26 13:01:00,
2013-04-26 09:42:00,43.0,-99.9,30.41,NNE,22,4.0,7.0,0,-99.99,,,0.00,,2013-04-26 13:42:00,
2013-04-26 09:52:00,43.0,-99.9,30.41,NNE,22,4.0,7.0,0,-99.99,,,0.00,,2013-04-26 13:52:00,
2013-04-26 10:02:00,43.0,-99.9,30.41,NNE,22,4.0,7.0,0,-99.99,,,0.00,,2013-04-26 14:02:00,
2013-04-26 10:42:00,45.0,-99.9,30.41,NNW,337,3.0,11.0,0,-99.99,,,0.00,,2013-04-26 14:42:00,
2013-04-26 10:52:00,45.0,-99.9,30.41,NNW,337,3.0,11.0,0,-99.99,,,0.00,,2013-04-26 14:52:00,
2013-04-26 11:43:00,46.0,-99.9,30.41,North,360,4.0,10.0,0,-99.99,,,-99.99,,2013-04-26 15:43:00,
2013-04-26 11:53:00,46.0,-99.9,30.41,North,360,4.0,10.0,0,-99.99,,,-99.99,,2013-04-26 15:53:00,
2013-04-26 12:03:00,46.0,-99.9,30.41,North,360,4.0,10.0,0,-99.99,,,-99.99,,2013-04-26 16:03:00,
2013-04-26 12:42:00,48.0,-99.9,30.39,SW,225,4.0,10.0,0,-99.99,,,0.00,,2013-04-26 16:42:00,
2013-04-26 12:53:00,48.0,-99.9,30.39,SW,225,4.0,10.0,0,-99.99,,,0.00,,2013-04-26 16:53:00,
2013-04-26 13:02:00,48.0,-99.9,30.39,SW,225,4.0,10.0,0,-99.99,,,0.00,,2013-04-26 17:02:00,
2013-04-26 13:42:00,52.0,-99.9,30.37,SSE,157,5.0,10.0,0,-99.99,,,0.00,,2013-04-26 17:42:00,
2013-04-26 13:52:00,52.0,-99.9,30.37,SSE,157,5.0,10.0,0,-99.99,,,0.00,,2013-04-26 17:52:00,
2013-04-26 14:02:00,52.0,-99.9,30.37,SSE,157,5.0,10.0,0,-99.99,,,0.00,,2013-04-26 18:02:00,
2013-04-26 14:42:00,54.0,-99.9,30.36,NE,45,5.0,11.0,0,-99.99,,,0.00,,2013-04-26 18:42:00,
2013-04-26 14:52:00,54.0,-99.9,30.36,NE,45,5.0,11.0,0,-99.99,,,0.00,,2013-04-26 18:52:00,
2013-04-26 15:02:00,54.0,-99.9,30.36,NE,45,5.0,11.0,0,-99.99,,,0.00,,2013-04-26 19:02:00,
2013-04-26 16:42:00,55.0,-99.9,30.33,WSW,247,4.0,10.0,0,-99.99,,,0.00,,2013-04-26 20:42:00,
2013-04-26 16:52:00,55.0,-99.9,30.33,WSW,247,4.0,10.0,0,-99.99,,,0.00,,2013-04-26 20:52:00,
2013-04-26 17:02:00,55.0,-99.9,30.33,WSW,247,4.0,10.0,0,-99.99,,,0.00,,2013-04-26 21:02:00,
2013-04-26 17:42:00,57.0,-99.9,30.32,WSW,247,0.0,9.0,0,-99.99,,,0.00,,2013-04-26 21:42:00,
2013-04-26 17:53:00,57.0,-99.9,30.32,WSW,247,0.0,9.0,0,-99.99,,,0.00,,2013-04-26 21:53:00,
2013-04-26 18:03:00,57.0,-99.9,30.32,WSW,247,0.0,9.0,0,-99.99,,,0.00,,2013-04-26 22:03:00,
2013-04-26 18:42:00,55.0,-99.9,30.33,WSW,247,4.0,9.0,0,-99.99,,,0.00,,2013-04-26 22:42:00,
2013-04-26 18:52:00,55.0,-99.9,30.33,WSW,247,4.0,9.0,0,-99.99,,,0.00,,2013-04-26 22:52:00,
2013-04-26 19:02:00,55.0,-99.9,30.33,WSW,247,4.0,9.0,0,-99.99,,,0.00,,2013-04-26 23:02:00,
2013-04-26 19:42:00,54.0,-99.9,30.33,South,180,0.0,8.0,0,-99.99,,,0.00,,2013-04-26 23:42:00,
2013-04-26 19:52:00,54.0,-99.9,30.33,South,180,0.0,8.0,0,-99.99,,,0.00,,2013-04-26 23:52:00,
2013-04-26 20:01:00,54.0,-99.9,30.33,South,180,0.0,8.0,0,-99.99,,,0.00,,2013-04-27 00:01:00,
2013-04-26 20:42:00,42.0,-99.9,30.35,East,90,1.0,7.0,0,-99.99,,,0.00,,2013-04-27 00:42:00,
2013-04-26 20:52:00,42.0,-99.9,30.35,East,90,1.0,7.0,0,-99.99,,,0.00,,2013-04-27 00:52:00,
2013-04-26 21:01:00,42.0,-99.9,30.35,East,90,1.0,7.0,0,-99.99,,,0.00,,2013-04-27 01:01:00,
2013-04-26 21:42:00,38.0,-99.9,30.37,NE,45,0.0,7.0,0,-99.99,,,0.00,,2013-04-27 01:42:00,
2013-04-26 21:52:00,38.0,-99.9,30.37,NE,45,0.0,7.0,0,-99.99,,,0.00,,2013-04-27 01:52:00,
2013-04-26 22:02:00,38.0,-99.9,30.37,NE,45,0.0,7.0,0,-99.99,,,0.00,,2013-04-27 02:02:00,
2013-04-26 22:42:00,35.0,-99.9,30.38,NNE,22,4.0,5.0,0,-99.99,,,0.00,,2013-04-27 02:42:00,
2013-04-26 22:52:00,35.0,-99.9,30.38,NNE,22,4.0,5.0,0,-99.99,,,0.00,,2013-04-27 02:52:00,
2013-04-26 23:02:00,35.0,-99.9,30.38,NNE,22,4.0,5.0,0,-99.99,,,0.00,,2013-04-27 03:02:00,
2013-04-26 23:43:00,32.0,-99.9,30.38,WSW,247,0.0,4.0,0,-99.99,,,0.00,,2013-04-27 03:43:00,
2013-04-26 23:53:00,32.0,-99.9,30.38,WSW,247,0.0,4.0,0,-99.99,,,0.00,,2013-04-27 03:53:00,